COSMOS 375 DEB

Satellite information

Favourite Embed

Satellite Type and Status

DEBRISIN ORBIT

Key statistics

Satellite COSMOS 375 DEB at a glance.

Uptime

19974

Days in orbit

Revolutions

≈ 14.0

Per day

Orbit

LEO

Low Earth Orbit

Inclination

62.8

Latest

Satellite identification and parameters

Extended collection of information and parameters for COSMOS 375 DEB.

Object identification

Identified? True

Debris? True

Object name: COSMOS 375 DEB

International designator: 1970-091L

Object number (NORAD): 4634

Object ID (CCSDS): 4634

Country: COMMONWEALTH OF INDEPENDENT STATES (CIS)

Current information (Y/N): Y

RCS size: SMALL

Orbital parameters

Period: 102.588 minutes

Inclination: 62.7923 deg

SMA: 7259.264 km

Apoapsis: 1271.488 km

Periapsis: 490.771 km

RAAN: 38.106 deg

Eccentricy: 0.0537738

Argument of periapsis: 38.2529 deg

Mean anomaly: 325.542 deg

Mean motion: 14.03666215 rev/day

Mean motion (dot): 0.00005401 rev/day2

B* drag term: 0.0009415 1/REarth

Two-line elements (TLE)

Creation date: July 6, 2025, 6:05 p.m.

Reference frame: TEME

Reference center: EARTH

Epoch: July 6, 2025, 1:30 p.m. UTC

TLE line 0: 0 COSMOS 375 DEB

TLE line 1: 1 04634U 70091L 25187.56316798 .00005401 00000-0 94150-3 0 9994

TLE line 2: 2 04634 62.7923 38.1060 0537738 38.2529 325.5420 14.03666215695777

Live tracking on map

Real-time ground track for satellite COSMOS 375 DEB.

In-orbit conjunctions

A list of the most updated potential collisions computed for object COSMOS 375 DEB.

Target Orbit TCA Probability of collision Miss distance Type
SL-8 R/B LEO 2025-06-11 01:01:15 0.0002794211 546.0 (m) ROCKET BODY
CZ-6A DEB LEO 2024-10-14 02:20:59 0.0002132949 874.0 (m) DEBRIS

Associated space launch

The I2P satellites were the first soviet coorbital ASAT system.

COSMOS 375 DEB was lifted into orbit during the mission ‘Tsiklon-2 | I2P 5’, on board a Tsiklon-2 space rocket.

The launch took place on Oct. 30, 1970, 2:36 a.m. from 90/20.

For more information about the launch, click the button.

Launch to space Tsiklon-2 | I2P 5
Tsiklon-2 | I2P 5

Agency: N/A

Status: Launch Successful

Launch date: Oct. 30, 1970, 2:36 a.m. UTC

Rocket: Tsiklon-2

Launch pad: 90/20

Location: Baikonur Cosmodrome, Republic of Kazakhstan

...

Latest news about this satellite

There are no fresh news available about this satellite. Check back as we update our databases every day.


Newsletter sign-up

Weekly statistics, charts and insights to help you stay on top of the space industry.